Cando, ND

11:36 PM CDT on March 28, 2017 (GMT -0500)
Cando

Weather History for K9D7 - February, 2014

Change the Weather History Date:

Wednesday, February 12, 2014

  Actual Average (KDVL) Record (KDVL)
Temperature  
Mean Temperature 0 °F -  
Max Temperature 8 °F 21 °F 46 °F (1977)
Min Temperature -9 °F 2 °F -25 °F (1955)
Degree Days  
Heating Degree Days 66    
Moisture  
Dew Point -4 °F    
Average Humidity 79    
Maximum Humidity 92    
Minimum Humidity 71    
Precipitation  
Precipitation 0.40 in - - ()
Sea Level Pressure  
Sea Level Pressure 29.83 in    
Wind  
Wind Speed 12 mph (SSE)    
Max Wind Speed 30 mph    
Max Gust Speed 38 mph    
Visibility 8 miles    
Events Rain , Snow    
Averages and records for this station are not official NWS values.
T = Trace of Precipitation, MM = Missing Value Source: NWS Daily Summary

Daily Weather History Graph

Daily Weather History Graph

Search for Another Location

Airport or City:

Trip Planner

Search our weather history database for the weather conditions in past years. The results will help you decide how hot, cold, wet, or windy it might be!

Date:

Astronomy

Feb. 12, 2014 Rise Set
Actual Time 7:49 AM CST 5:53 PM CST
Civil Twilight 7:16 AM CST 6:26 PM CST
Nautical Twilight 6:39 AM CST 7:03 PM CST
Astronomical Twilight 6:03 AM CST 7:39 PM CST
Moon 4:05 PM CST (2/12) 6:11 AM CST (2/12)
Length of Visible Light 11h 09m
Length of Day
10h 04m
Waxing Gibbous, 95% of the Moon is Illuminated
Feb 12
Waxing Gibbous
Feb 14
Full
Feb 22
Last Quarter
Mar 1
New
Mar 8
First Quarter

Hourly Weather History & Observations

Time (CST) Temp. Windchill Dew Point Humidity Pressure Visibility Wind Dir Wind Speed Gust Speed Precip Events Conditions
12:15 AM -2.2 °F -18.9 °F -7.6 °F 78% 30.04 in 10.0 mi WNW 10.4 mph - N/A   Clear
12:35 AM -2.2 °F -20.7 °F -7.6 °F 78% 30.05 in 10.0 mi WNW 12.7 mph - N/A   Clear
12:55 AM -2.2 °F -19.9 °F -7.6 °F 78% 30.06 in 10.0 mi NW 11.5 mph - N/A   Clear
1:15 AM -4.0 °F -21.2 °F -9.4 °F 78% 30.06 in 10.0 mi NW 10.4 mph - N/A   Clear
1:35 AM -4.0 °F -20.2 °F -9.4 °F 78% 30.06 in 10.0 mi NW 9.2 mph - N/A   Clear
1:55 AM -4.0 °F -20.2 °F -11.2 °F 71% 30.06 in 10.0 mi WNW 9.2 mph - N/A   Clear
2:15 AM -5.8 °F -23.4 °F -11.2 °F 77% 30.08 in 10.0 mi WNW 10.4 mph - N/A   Clear
2:35 AM -5.8 °F -22.4 °F -11.2 °F 77% 30.08 in 10.0 mi West 9.2 mph - N/A   Clear
2:55 AM -7.6 °F -24.6 °F -11.2 °F 84% 30.07 in 10.0 mi West 9.2 mph - N/A   Mostly Cloudy
3:15 AM -4.0 °F -21.2 °F -9.4 °F 78% 30.08 in 10.0 mi WNW 10.4 mph - N/A   Overcast
3:35 AM -5.8 °F -22.4 °F -11.2 °F 77% 30.08 in 10.0 mi WNW 9.2 mph - N/A   Overcast
3:55 AM -4.0 °F -17.8 °F -9.4 °F 78% 30.07 in 10.0 mi West 6.9 mph - N/A   Overcast
4:15 AM -4.0 °F -17.8 °F -9.4 °F 78% 30.08 in 10.0 mi West 6.9 mph - N/A   Overcast
4:35 AM -4.0 °F -20.2 °F -9.4 °F 78% 30.08 in 10.0 mi NW 9.2 mph - N/A   Overcast
4:55 AM -4.0 °F -17.8 °F -9.4 °F 78% 30.08 in 10.0 mi West 6.9 mph - N/A   Mostly Cloudy
5:15 AM -4.0 °F -20.2 °F -9.4 °F 78% 30.09 in 10.0 mi WNW 9.2 mph - N/A   Overcast
5:35 AM -4.0 °F -20.2 °F -9.4 °F 78% 30.08 in 10.0 mi West 9.2 mph - N/A   Overcast
5:55 AM -5.8 °F -23.4 °F -11.2 °F 77% 30.09 in 10.0 mi West 10.4 mph - N/A   Mostly Cloudy
6:15 AM -7.6 °F -22.1 °F - N/A% 30.09 in 10.0 mi West 6.9 mph - N/A   Clear
6:35 AM -7.6 °F -22.1 °F -13.0 °F 77% 30.10 in 10.0 mi West 6.9 mph - N/A   Clear
6:55 AM -7.6 °F -22.1 °F -13.0 °F 77% 30.09 in 10.0 mi WNW 6.9 mph - N/A   Scattered Clouds
7:15 AM -9.4 °F - -13.0 °F 84% 30.09 in 10.0 mi Calm Calm - N/A   Overcast
7:35 AM -7.6 °F - -13.0 °F 77% 30.08 in 10.0 mi Calm Calm - N/A   Overcast
7:55 AM -7.6 °F - - N/A% 30.07 in 10.0 mi Calm Calm - N/A   Overcast
8:15 AM -7.6 °F - -11.2 °F 84% 30.06 in 10.0 mi Calm Calm - N/A   Overcast
8:35 AM -7.6 °F - -13.0 °F 77% 30.06 in 10.0 mi Calm Calm - N/A   Mostly Cloudy
8:55 AM -7.6 °F -16.5 °F -13.0 °F 77% 30.05 in 10.0 mi South 3.5 mph - N/A   Partly Cloudy
9:15 AM -5.8 °F -14.5 °F - N/A% 30.05 in 10.0 mi South 3.5 mph - N/A   Clear
9:35 AM -5.8 °F - -11.2 °F 77% 30.04 in 10.0 mi Calm Calm - N/A   Clear
9:55 AM -4.0 °F - -11.2 °F 71% 30.03 in 10.0 mi Calm Calm - N/A   Clear
10:15 AM -4.0 °F -12.4 °F -9.4 °F 78% 30.01 in 10.0 mi SSE 3.5 mph - N/A   Clear
10:35 AM -2.2 °F -10.4 °F -9.4 °F 71% 30.02 in 10.0 mi South 3.5 mph - N/A   Clear
10:55 AM -2.2 °F -10.4 °F -9.4 °F 71% 30.01 in 10.0 mi SSE 3.5 mph - N/A   Clear
11:15 AM -2.2 °F -15.6 °F -7.6 °F 78% 30.00 in 10.0 mi SSE 6.9 mph - N/A   Clear
11:35 AM -0.4 °F -17.6 °F -5.8 °F 78% 29.98 in 10.0 mi SSE 11.5 mph - N/A   Clear
11:55 AM -0.4 °F -20.5 °F -5.8 °F 78% 29.96 in 10.0 mi SSE 16.1 mph - N/A   Clear
12:15 PM 1.4 °F -17.6 °F -4.0 °F 78% 29.94 in 10.0 mi SSE 15.0 mph - N/A   Scattered Clouds
12:35 PM 1.4 °F -16.9 °F -4.0 °F 78% 29.92 in 10.0 mi SSE 13.8 mph 17.3 mph N/A   Mostly Cloudy
12:55 PM 1.4 °F -16.9 °F -4.0 °F 78% 29.90 in 10.0 mi SSE 13.8 mph - N/A   Mostly Cloudy
1:15 PM 1.4 °F -18.2 °F -4.0 °F 78% 29.88 in 10.0 mi SSE 16.1 mph - N/A   Mostly Cloudy
1:35 PM 3.2 °F -15.3 °F -2.2 °F 78% 29.87 in 10.0 mi SSE 15.0 mph - N/A   Mostly Cloudy
1:55 PM 3.2 °F -15.9 °F -2.2 °F 78% 29.84 in 10.0 mi SSE 16.1 mph - N/A   Mostly Cloudy
2:15 PM 5.0 °F -13.0 °F -2.2 °F 72% 29.83 in 10.0 mi SSE 15.0 mph - N/A   Mostly Cloudy
2:35 PM 5.0 °F -13.0 °F -2.2 °F 72% 29.80 in 10.0 mi SE 15.0 mph - N/A   Partly Cloudy
2:55 PM 5.0 °F -13.6 °F -0.4 °F 78% 29.78 in 10.0 mi SE 16.1 mph - N/A   Scattered Clouds
3:15 PM 5.0 °F -15.2 °F -2.2 °F 72% 29.77 in 10.0 mi SE 19.6 mph - N/A   Mostly Cloudy
3:35 PM 5.0 °F -15.2 °F -0.4 °F 78% 29.75 in 10.0 mi SE 19.6 mph - N/A   Scattered Clouds
3:55 PM 5.0 °F -14.7 °F -0.4 °F 78% 29.73 in 10.0 mi SE 18.4 mph - N/A   Mostly Cloudy
4:15 PM 5.0 °F -15.2 °F -0.4 °F 78% 29.71 in 10.0 mi SE 19.6 mph 25.3 mph N/A   Overcast
4:35 PM 6.8 °F -13.4 °F -0.4 °F 72% 29.68 in 10.0 mi SE 20.7 mph 26.5 mph N/A   Overcast
4:55 PM 6.8 °F -13.4 °F -0.4 °F 72% 29.66 in 10.0 mi SE 20.7 mph 26.5 mph N/A   Overcast
5:15 PM 6.8 °F -15.5 °F -0.4 °F 72% 29.63 in 10.0 mi SE 26.5 mph - N/A   Overcast
5:35 PM 6.8 °F -15.1 °F -0.4 °F 72% 29.62 in 10.0 mi SE 25.3 mph 33.4 mph N/A   Overcast
5:55 PM 6.8 °F -13.8 °F -0.4 °F 72% 29.61 in 10.0 mi SE 21.9 mph 32.2 mph N/A   Overcast
6:15 PM 6.8 °F -15.1 °F 1.4 °F 79% 29.61 in 10.0 mi SE 25.3 mph 31.1 mph N/A   Overcast
6:35 PM 6.8 °F -14.7 °F 1.4 °F 79% 29.58 in 10.0 mi SE 24.2 mph 28.8 mph N/A   Overcast
6:55 PM 6.8 °F -16.6 °F 1.4 °F 79% 29.55 in 10.0 mi SE 29.9 mph 35.7 mph N/A   Overcast
7:15 PM 6.8 °F -15.5 °F 3.2 °F 85% 29.53 in 2.5 mi SE 26.5 mph 38.0 mph N/A Rain Light Freezing Rain
7:35 PM 8.6 °F -13.1 °F 5.0 °F 85% 29.50 in 5.0 mi ESE 26.5 mph 32.2 mph N/A   Overcast
7:55 PM 6.8 °F -15.9 °F 5.0 °F 92% 29.48 in 1.8 mi SE 27.6 mph 33.4 mph N/A   Overcast
8:15 PM 6.8 °F -14.3 °F 5.0 °F 92% 29.46 in 1.5 mi SE 23.0 mph 29.9 mph N/A   Overcast
8:35 PM 6.8 °F -13.4 °F 5.0 °F 92% 29.45 in 2.5 mi SE 20.7 mph 28.8 mph N/A   Overcast
8:55 PM 6.8 °F -15.1 °F 3.2 °F 85% 29.41 in 3.0 mi SE 25.3 mph 34.5 mph N/A   Overcast
9:15 PM 6.8 °F -16.2 °F 3.2 °F 85% 29.41 in 0.8 mi SE 28.8 mph 34.5 mph N/A Snow Light Snow
9:35 PM 6.8 °F -14.7 °F 5.0 °F 92% 29.38 in 0.5 mi SE 24.2 mph 32.2 mph 0.06 in Snow Snow
9:55 PM 6.8 °F -14.3 °F 3.2 °F 85% 29.36 in 0.5 mi SE 23.0 mph 28.8 mph 0.17 in Snow Snow
10:15 PM 6.8 °F -14.3 °F 3.2 °F 85% 29.34 in 0.8 mi SE 23.0 mph 31.1 mph 0.01 in Snow Light Snow
10:35 PM 6.8 °F -14.7 °F 3.2 °F 85% 29.33 in 0.8 mi SE 24.2 mph 28.8 mph 0.04 in Snow Light Snow
10:55 PM 6.8 °F -12.9 °F 3.2 °F 85% 29.32 in 0.8 mi SE 19.6 mph 27.6 mph 0.12 in Snow Light Snow
11:15 PM 6.8 °F -13.4 °F 3.2 °F 85% 29.31 in 0.8 mi SE 20.7 mph - 0.05 in Snow Light Snow
11:35 PM 6.8 °F -10.7 °F 5.0 °F 92% 29.30 in 1.5 mi ESE 15.0 mph - 0.08 in Snow Light Snow
11:55 PM 6.8 °F -10.7 °F 5.0 °F 92% 29.29 in 1.5 mi ESE 15.0 mph - 0.11 in Snow Light Snow